CDT,Max TemperatureF,Mean TemperatureF,Min TemperatureF,Max Dew PointF,MeanDew PointF,Min DewpointF,Max Humidity, Mean Humidity, Min Humidity, Max Sea Level PressureIn, Mean Sea Level PressureIn, Min Sea Level PressureIn, Max VisibilityMiles, Mean VisibilityMiles, Min VisibilityMiles, Max Wind SpeedMPH, Mean Wind SpeedMPH, Max Gust SpeedMPH,PrecipitationIn, CloudCover, Events, WindDirDegrees
2012-10-1,75,62,48,48,42,36,82,48,27,29.98,29.93,29.89,10,10,9,21,8,30,0.00,1,,345
2012-10-2,71,56,42,37,34,32,66,42,23,29.99,29.93,29.87,10,10,9,9,6,12,0.00,0,,328
2012-10-3,78,62,46,39,35,28,66,39,16,29.91,29.87,29.79,10,10,0,22,9,30,0.00,0,,168
2012-10-4,64,54,44,45,35,28,87,57,36,30.31,30.17,29.92,10,10,5,21,14,34,0.02,4,Rain,324
2012-10-5,50,42,35,30,26,21,81,56,32,30.34,30.28,30.24,10,10,10,15,6,22,0.00,0,,311
2012-10-6,46,37,28,25,22,19,74,52,40,30.36,30.31,30.27,10,10,10,17,9,25,0.00,1,,324
2012-10-7,55,42,28,28,24,21,86,52,26,30.29,30.17,30.02,10,10,9,18,7,25,0.00,0,,236
2012-10-8,69,54,39,34,31,27,75,47,20,30.01,29.89,29.78,10,10,10,23,15,33,0.00,0,,206
2012-10-9,55,48,41,43,31,21,67,48,30,30.13,29.94,29.79,10,10,1,21,10,31,0.00,1,,305
2012-10-10,62,47,32,28,26,23,80,48,26,30.23,30.13,30.05,10,10,10,15,7,21,0.00,0,,224
2012-10-11,64,54,44,36,30,21,54,43,30,30.35,30.11,30.00,10,10,10,23,13,31,0.00,0,,257
2012-10-12,57,45,33,43,26,18,71,47,25,30.36,30.24,30.00,10,10,9,20,13,28,0.00,7,,112
2012-10-13,71,61,51,64,59,46,100,87,69,29.97,29.76,29.57,10,8,2,18,9,28,0.39,7,Rain,178
2012-10-14,66,58,50,61,44,36,100,64,34,29.98,29.82,29.59,10,9,0,25,11,32,1.36,3,Rain,321
2012-10-15,73,58,44,46,40,36,76,53,31,29.99,29.91,29.77,10,10,10,14,6,18,0.00,0,,158
2012-10-16,78,64,51,48,46,41,88,56,26,29.75,29.54,29.41,10,10,10,15,10,21,0.00,0,,209
2012-10-17,66,58,51,52,38,19,94,49,26,29.58,29.47,29.32,10,9,3,31,14,43,0.06,4,Rain,281
2012-10-18,51,48,44,43,32,19,93,59,28,29.59,29.51,29.47,10,7,2,31,20,54,0.40,8,Rain,295
2012-10-19,46,44,42,41,39,39,93,85,81,29.82,29.72,29.58,10,8,2,26,18,38,0.08,8,Rain,321
2012-10-20,64,50,35,43,40,34,100,74,42,29.83,29.77,29.69,10,8,0,17,5,22,0.00,1,Fog,152
2012-10-21,78,62,46,63,53,41,88,73,51,29.79,29.75,29.71,10,10,7,16,11,22,0.00,3,,145
2012-10-22,68,64,57,64,61,55,100,92,82,29.81,29.77,29.74,9,5,2,16,7,,0.04,8,Rain,10
2012-10-23,77,65,53,63,58,54,100,88,57,29.80,29.73,29.65,10,5,0,13,8,18,0.00,4,Fog,214
2012-10-24,60,54,48,61,55,46,100,99,88,29.77,29.74,29.71,9,2,0,20,9,22,0.14,7,Fog,355
2012-10-25,46,40,33,46,34,25,100,84,65,30.32,30.01,29.65,10,8,2,29,18,38,0.59,,Rain,334
2012-10-26,41,36,30,27,25,23,86,67,52,30.49,30.42,30.31,10,10,10,18,8,22,0.00,7,,326
2012-10-27,44,37,30,28,24,21,86,61,43,30.40,30.33,30.25,10,10,9,9,4,15,0.00,0,,195
2012-10-28,50,41,32,30,29,27,87,64,43,30.32,30.26,30.21,10,10,10,14,7,18,0.00,,,150
2012-10-29,55,47,39,30,29,27,70,52,38,30.24,30.17,30.10,10,10,10,23,13,29,0.00,0,,152
2012-10-30,51,43,35,30,27,23,81,56,35,30.11,30.07,30.03,10,10,3,13,9,18,0.00,,,95
2012-10-31,57,45,33,34,29,25,75,55,36,30.07,30.02,29.98,10,9,1,8,4,,0.00,0,,83